Terminal Aerodrome Forecast
Issued by NWS Greer, SC

Home | Current Version | Previous Version | Text Only | Print | Product List | Glossary On
Versions: 1 2 3 4 5 6 7 8 9 10 11 12 13 14 15 16 17 18 19 20 21 22 23 24 25 26 27 28 29 30 31 32 33 34 35 36 37 38 39 40 41 42 43 44 45 46 47 48 49 50
000
FTUS42 KGSP 301120
TAFCLT
TAF
KCLT 301120Z 3012/0112 19006KT P6SM SCT008 OVC015
      TEMPO 3012/3014 BKN008 OVC015
     FM301500 19007KT P6SM BKN020
     FM301800 18009KT P6SM BKN040
     FM010300 17011G18KT P6SM BKN025
     FM010600 17013G21KT P6SM BKN008 PROB30 0108/0112 4SM -SHRA
      OVC003=

USA.gov is the U.S. government's official web portal to all federal, state and local government web resources and services.